Regional Weather Roundup
Issued by NWS

Home | Current Version | Previous Version | Graphics & Text | Print | Product List | Glossary On
Versions: 1 2 3 4 5 6 7 8 9 10 11 12 13 14 15 16 17 18 19 20 21 22 23 24 25 26 27 28 29 30 31 32 33 34 35 36 37 38 39 40 41 42 43 44 45 46 47 48 49 50
450
ASUS43 KDTX 251210
RWRMI
MICHIGAN HOURLY REGIONAL WEATHER ROUNDUP
NATIONAL WEATHER SERVICE DETROIT/PONTIAC MI
800 AM EDT SAT MAR 25 2017

NOTE: "FAIR" INDICATES FEW OR NO CLOUDS BELOW 12,000 FEET WITH NO
SIGNIFICANT WEATHER AND/OR OBSTRUCTION TO VISIBILITY.

MIZ047>049-052>055-059>063-066>070-074>076-081>083-251300-
SOUTHEAST LOWER MICHIGAN

CITY           SKY/WX    TMP DP  RH WIND       PRES   REMARKS
ADRIAN         CLOUDY    46  40  79 E10       30.13R
6HR MIN TEMP:  45; 6HR MAX TEMP:  53;

ALMA           CLOUDY    36  35  98 NE13G21   30.19R WCI  27
ANN ARBOR      CLOUDY    43  40  89 NE7       30.13R
BAD AXE        CLOUDY    34  33  96 NE10G17   30.22R WCI  26
6HR MIN TEMP:  34; 6HR MAX TEMP:  35;

CARO           LGT RAIN  35  34  96 NE6       30.19R WCI  30
DETROIT CITY   CLOUDY    40  39  97 N7        30.15R
6HR MIN TEMP:  40; 6HR MAX TEMP:  45; 6HR PCP:  0.05;

DETROIT        CLOUDY    44  40  85 NE7       30.15R FOG
6HR MIN TEMP:  44; 6HR MAX TEMP:  47;

FLINT          RAIN      37  36  96 NE10      30.17R FOG     WCI  30
6HR MIN TEMP:  37; 6HR MAX TEMP:  40; 6HR PCP:  0.55;

GROSSE ILE     CLOUDY    41  39  91 NE8       30.13R FOG
6HR MIN TEMP:  41; 6HR MAX TEMP:  46;

HILLSDALE      CLOUDY    45  41  87 NE6       30.09R
HOWELL         LGT RAIN  38  37  94 NE5       30.14S WCI  35
6HR MIN TEMP:  38; 6HR MAX TEMP:  42; 6HR PCP:  0.19;


CITY           SKY/WX    TMP DP  RH WIND       PRES   REMARKS
JACKSON        CLOUDY    41  39  93 NE6       30.13R
6HR MIN TEMP:  41; 6HR MAX TEMP:  46; 6HR PCP:  0.07;

LAMBERTVILLE   CLOUDY    45  40  83 E3        30.12R
6HR MIN TEMP:  45; 6HR MAX TEMP:  49;

LANSING        RAIN      37  34  89 NE9       30.17R FOG     WCI  30
6HR MIN TEMP:  37; 6HR MAX TEMP:  41; 6HR PCP:  0.77;

LAPEER         RAIN      37  36  98 NE6       30.18R WCI  32
6HR MIN TEMP:  37; 6HR MAX TEMP:  40; 6HR PCP:  0.17;

MASON          RAIN      38  38  98 NE6       30.15R WCI  34
MONROE         CLOUDY    44  41  89 NE6       30.12R FOG
MT. CLEMENS    CLOUDY    38  38 100 N8        30.14R WCI  33
6HR MIN TEMP:  38; 6HR MAX TEMP:  42; 6HR PCP:  0.04;

PONTIAC        HVY RAIN  38  38 100 N7        30.14R FOG     WCI  33
6HR MIN TEMP:  38; 6HR MAX TEMP:  41; 6HR PCP:  0.33;

PORT HOPE        N/A     34  33  96 NE17      30.22R WCI  23
6HR MIN TEMP:  34; 6HR MAX TEMP:  34; 6HR PCP:  0.07;

PORT HURON     RAIN      36  34  93 N5        30.18R WCI  32
TRI CITIES     LGT RAIN  35  35 100 NE18      30.21R WCI  24
6HR MIN TEMP:  35; 6HR MAX TEMP:  36; 6HR PCP:  0.02;

MIDLAND        CLOUDY    37  34  90 NE13      30.22R WCI  28
6HR MIN TEMP:  36; 6HR MAX TEMP:  38;

TROY           CLOUDY    40  37  91 NE7       30.17R WCI  35
SAGINAW HB     LGT RAIN  36  32  87 NE12      30.20R WCI  27
$$
MIZ043>046-050>051-056>058-064>065-071>073-077>080-251300-
SOUTHWEST LOWER MICHIGAN

CITY           SKY/WX    TMP DP  RH WIND       PRES   REMARKS
BATTLE CREEK   LGT RAIN  42  40  92 E9        30.12R
6HR MIN TEMP:  41; 6HR MAX TEMP:  46; 6HR PCP:  0.04;

BENTON HARBOR  CLOUDY    47  45  93 E10       30.06R FOG
6HR MIN TEMP:  41; 6HR MAX TEMP:  47; 6HR PCP:  0.16;

BIG RAPIDS     MIX PCPN  35  32  88 E9        30.18R WCI  28
6HR MIN TEMP:  35; 6HR MAX TEMP:  39;

COLDWATER      MOCLDY    46  44  91 NE10      30.09R FOG
6HR MIN TEMP:  46; 6HR MAX TEMP:  52;

FREMONT        CLOUDY    37  35  92 E12G17    30.16R WCI  29
HOLLAND        CLOUDY    40  37  89 E13       30.11R WCI  32
6HR MIN TEMP:  40; 6HR MAX TEMP:  46; 6HR PCP:  0.02;

GRAND RAPIDS   LGT RAIN  38  35  89 E16       30.13R WCI  29
6HR MIN TEMP:  38; 6HR MAX TEMP:  42; 6HR PCP:  0.06;

IONIA          LGT RAIN  36  35  95 NE9       30.16R WCI  29
6HR MIN TEMP:  36; 6HR MAX TEMP:  39;

KALAMAZOO      LGT RAIN  43  39  86 NE9G16    30.08F FOG
6HR MIN TEMP:  43; 6HR MAX TEMP:  49; 6HR PCP:  0.03;

LUDINGTON      CLOUDY    37  35  94 NE8       30.17R WCI  30
6HR MIN TEMP:  36; 6HR MAX TEMP:  37; 6HR PCP:  0.02;

MARSHALL       LGT RAIN  42  41  98 NE8       30.12R
6HR MIN TEMP:  42; 6HR MAX TEMP:  45; 6HR PCP:  0.04;

MOUNT PLEASANT DRIZZLE   35  33  92 NE10      30.21R WCI  28
6HR MIN TEMP:  35; 6HR MAX TEMP:  38; 6HR PCP:  0.02;

MUSKEGON       CLOUDY    40  36  86 E15G23    30.13R WCI  32
6HR MIN TEMP:  40; 6HR MAX TEMP:  47; 6HR PCP:  0.01;

SOUTH HAVEN    LGT RAIN  42  42  99 E9        30.07S
$$
MIZ016>042-251300-
NORTHERN LOWER MICHIGAN

CITY           SKY/WX    TMP DP  RH WIND       PRES   REMARKS
ALPENA         CLOUDY    34  33  96 NE9       30.31R WCI  27
6HR MIN TEMP:  34; 6HR MAX TEMP:  35; 6HR PCP:  0.01;

BEAVER ISLAND  CLOUDY    33  32  96 E9        30.31R WCI  25
6HR MIN TEMP:  33; 6HR MAX TEMP:  34;

BELLAIRE       CLOUDY    36  32  87 NE8       30.27R WCI  29
6HR MIN TEMP:  34; 6HR MAX TEMP:  36;

CADILLAC       CLOUDY    33  32  96 E12       30.18S WCI  24
CHARLEVOIX     CLOUDY    35  33  94 E12       30.30R WCI  26
6HR MIN TEMP:  34; 6HR MAX TEMP:  35;

FRANKFORT      CLOUDY    36  32  88 E6        30.22R WCI  31
GAYLORD        CLOUDY    34  31  88 E10G16    30.24R WCI  26
6HR MIN TEMP:  34; 6HR MAX TEMP:  35; 6HR PCP:  0.01;

GRAYLING       CLOUDY    32  32 100 NE10      30.25R WCI  24
HARBOR SPRINGS CLOUDY    34  32  94 NE10G20   30.29R WCI  26
HOUGHTON LAKE  CLOUDY    34  31  88 E13       30.23R WCI  25
6HR MIN TEMP:  33; 6HR MAX TEMP:  34; 6HR PCP:  0.05;

MANISTEE       CLOUDY    36  34  92 E10       30.20R WCI  28
OSCODA         MIX PCPN  35  34  95 NE12      30.27R WCI  27
6HR MIN TEMP:  35; 6HR MAX TEMP:  35; 6HR PCP:  0.01;

PELLSTON       CLOUDY    33  28  81 E10       30.31R WCI  25
6HR MIN TEMP:  33; 6HR MAX TEMP:  35;

ROGERS CITY    CLOUDY    33  31  92 E13G18      N/A  WCI  24
TRAVERSE CITY  CLOUDY    36  34  92 NE3       30.24R
6HR MIN TEMP:  36; 6HR MAX TEMP:  36; 6HR PCP:  0.03;

$$
MIZ007>008-015-251300-
EASTERN UPPER MICHIGAN

CITY           SKY/WX    TMP DP  RH WIND       PRES   REMARKS
KINROSS        CLOUDY    30  26  85 NE10      30.33R WCI  21
6HR MIN TEMP:  30; 6HR MAX TEMP:  33;

MACKINAC ISLAN CLOUDY    31  31 100 NE9       30.31R WCI  23
6HR MIN TEMP:  31; 6HR MAX TEMP:  33;

NEWBERRY       CLOUDY    30  29  96 NE6       30.31R WCI  24
6HR MIN TEMP:  30; 6HR MAX TEMP:  32;

S. S. MARIE    CLOUDY    31  23  72 E8        30.34R WCI  23
6HR MIN TEMP:  31; 6HR MAX TEMP:  36;

MUNISING         N/A     33  31  92 N7        30.32R WCI  27
6HR MIN TEMP:  33; 6HR MAX TEMP:  34;

$$
MIZ004>006-011>014-085-251300-
CENTRAL UPPER MICHIGAN

CITY           SKY/WX    TMP DP  RH WIND       PRES   REMARKS
MANISTIQUE     CLOUDY    32  32 100 NE7       30.30R WCI  26
ESCANABA       CLOUDY    34  31  88 NE8       30.30R WCI  27
6HR MIN TEMP:  33; 6HR MAX TEMP:  34;

MENOMINEE        N/A    N/A N/A N/A MISG        N/A
SAWYER-GWINN   CLOUDY    30  28  93 NE6       30.29R WCI  24
$$
MIZ001>003-009>011-084-251300-
WESTERN UPPER MICHIGAN

CITY           SKY/WX    TMP DP  RH WIND       PRES   REMARKS
IRON MOUNTAIN  CLOUDY    33  28  81 N5        30.26R WCI  29
6HR MIN TEMP:  33; 6HR MAX TEMP:  35;

HOUGHTON       CLOUDY    30  23  75 E10       30.32R WCI  21
6HR MIN TEMP:  30; 6HR MAX TEMP:  33;

COPPER HARBOR    N/A     29  22  75 SE7       30.36R WCI  22
6HR MIN TEMP:  29; 6HR MAX TEMP:  33;

IRONWOOD       CLOUDY    32  29  88 NE6       30.27R WCI  26
6HR MIN TEMP:  32; 6HR MAX TEMP:  33; 6HR PCP: TRACE;

$$

ABBREVIATIONS USED IN REMARKS
   TC - TEMPERATURE IN CELSIUS
  WCI - WIND CHILL INDEX
   HX - HEAT INDEX
  VSB - VISIBILITY





USA.gov is the U.S. government's official web portal to all federal, state and local government web resources and services.